Regional Weather Roundup
Issued by NWS

Home | Current Version | Previous Version | Graphics & Text | Print | Product List | Glossary On
Versions: 1 2 3 4 5 6 7 8 9 10 11 12 13 14 15 16 17 18 19 20 21 22 23 24 25 26 27 28 29 30 31 32 33 34 35 36 37 38 39 40 41 42 43 44 45 46 47 48 49 50
000
ASUS45 KABQ 100110
RWRNM
NEW MEXICO REGIONAL WEATHER ROUNDUP
NATIONAL WEATHER SERVICE ALBUQUERQUE NM
600 PM MST TUE FEB 09 2016

NOTE: "FAIR" MEANS FEW OR NO CLOUDS BELOW 12,000 FEET AGL WITH NO
       SIGNIFICANT WEATHER OR OBSTRUCTIONS TO VISION.

      THIS PRODUCT IS RELEASED AS TWO VERSIONS.  ONE VERSION NEAR
      THE TOP OF THE HOUR CONTAINING PRELIMINARY DATA FROM ALBUQUERQUE
      AND OTHER STATIONS.  A FINAL VERSION WITH ADDITIONAL DATA IS
      ISSUED ABOUT 10 MINUTES AFTER THE HOUR.

NMZ501-503-504-510>518-100200-
NORTHWEST PLATEAU/NORTHCENTRAL MOUNTAINS

CITY           SKY/WX    TMP DP  RH WIND       PRES   REMARKS
FARMINGTON     CLEAR     43  21  41 NW3       30.36S
LOS ALAMOS     CLEAR     49  18  29 SW5       30.39R
SANTA FE       CLEAR     45  17  32 W6        30.34R
TAOS           CLEAR     39  16  38 N7        30.40R WCI  34
ANGEL FIRE     FAIR      37  13  36 SW7       30.42R WCI  32

$$
NMZ402-403-502-505>509-100200-
WESTCENTRAL MOUNTAINS/SOUTHWEST MOUNTAINS

CITY           SKY/WX    TMP DP  RH WIND       PRES   REMARKS
GALLUP         CLEAR     46  20  35 CALM      30.39R
GRANTS         PTCLDY    40   8  25 NW9       30.40R WCI  35
SILVER CITY      N/A     54  16  22 S7        30.34R

$$
NMZ407-409-411-412-100200-
SOUTHERN DESERTS

CITY           SKY/WX    TMP DP  RH WIND       PRES   REMARKS
LORDSBURG      FAIR      57  19  23 SE6       30.27S
DEMING         CLEAR     61  17  18 CALM      30.28S
LAS CRUCES     CLEAR     56  17  21 SE3       30.31R
ALAMOGORDO     CLEAR     57  16  19 W3        30.29S
T OR C         PTCLDY    60  16  18 CALM      30.29R

$$
NMZ519>523-100200-
CENTRAL VALLEYS/CENTRAL HIGHLANDS

CITY           SKY/WX    TMP DP  RH WIND       PRES   REMARKS
ALBUQUERQUE    CLEAR     57  19  22 CALM      30.33R
DOUBLE EAGLE   CLEAR     52  19  28 VRB3      30.35R
MORIARTY ARPT  FAIR      44  14  30 NW6       30.35R
CLINES CORNERS CLEAR     48  16  27 N3        30.35R
BELEN          FAIR      55  16  21 CALM      30.32S
SOCORRO        FAIR      52  17  25 W6        30.31S

$$
NMZ524>526-539-540-100200-
SOUTHCENTRAL MOUNTAINS

CITY           SKY/WX    TMP DP  RH WIND       PRES   REMARKS
RUIDOSO          N/A     48  16  27 SE5       30.39R

$$
NMZ527>531-100200-
NORTHEAST HIGHLANDS/NORTHEAST PLAINS

CITY           SKY/WX    TMP DP  RH WIND       PRES   REMARKS
LAS VEGAS      CLEAR     40  18  41 S12       30.35R WCI  33
RATON          CLEAR     39  15  37 N9        30.35R WCI  33
CLAYTON        CLEAR     40  17  39 N10       30.33R WCI  33

$$
NMZ532>537-100200-
EASTCENTRAL PLAINS

CITY           SKY/WX    TMP DP  RH WIND       PRES   REMARKS
TUCUMCARI      CLEAR     51  14  22 SE3       30.30R
CANNON AFB     CLEAR     54  16  22 CALM      30.31R
CLOVIS AIRPORT CLEAR     52  14  22 CALM      30.32R

$$
NMZ028-029-538-100200-
SOUTHEAST PLAINS

CITY           SKY/WX    TMP DP  RH WIND       PRES   REMARKS
ROSWELL        CLEAR     53  20  27 SE5       30.29R
ARTESIA        CLEAR     54  21  28 SE5       30.29R
CARLSBAD       CLEAR     53  21  28 SE7       30.28R
HOBBS          CLEAR     54  16  22 CALM      30.32R


$$




USA.gov is the U.S. government's official web portal to all federal, state and local government web resources and services.